THORAD AGENA D DEB, 42537

Orbit data source: Space-Track

THORAD AGENA D DEB, 42537 is space debris in SSO originally from a launch on Wed, 08 Apr 1970 UTC launched from the Air Force Western Test Range (AFWTR). Debris objects in space refer to the collection of defunct objects orbiting the Earth. Examples of debris include non-operational satellites, rocket bodies, and fragments generated from explosions, collisions, or faulty payload assembly.

Loading next visibility...
Identifier
42537, 1970-025ST
Orbit
SSO
Country
Flag of USUS
Related business
Manufacturer
Unknown
Mission
Spacecraft
Bus & Motor
Unknown
Mass
Unknown
Launch date (UTC)
1970-04-08 (56 years ago)
Launch vehicle
Unknown
Launch site
Air Force Western Test Range (AFWTR)
Object type
Payload
Rocket body
Debris
Shape & HBR
Unknown shape, 0.1 m
Radar Cross Section
Small (<0.1 m²)

Expand to show TLE details & history
Last TLE update: 1 week ago

TLE from 1 week ago
0 THORAD AGENA D DEB
1 42537U 70025ST  25278.95077473  .00001283  00000-0  12255-2 0  9992
2 42537 100.0330 158.3897 0005787 177.2088 182.9097 13.82719454 17504
Epoch: 2025-10-05T22:49Z
TLE epoch observation values (Epoch: 2025-10-05T22:49:06.936Z)
Latitude
0.00001°
Longitude
161.24978°
Altitude
961.314 km
Speed
7.369 km/s
True Right ascension
10h 33m 33s
True Declination
0° 00' 00"
Sunlit
Object was in daylight at epoch
Visualization orbit readout
Latitude
Unknown
Longitude
Unknown
Altitude
Unknown
Speed
Unknown
Apparent Right ascension
Unknown
Apparent Declination
Unknown
Sunlit
N/A
Visualization observer readout
Local Sidereal Time
09:04:31
Azimuth
Unknown
Elevation
Unknown
Doppler factor
Unknown
Orbital elements
Apogee altitude
955.774 km
Perigee altitude
947.291 km
Semi-major axis
7,329.669 km
Eccentricity
0.00058
Inclination
100.033°
RAAN
158.3897°
Arg. of periapsis
177.2088°
True anomaly
182.90634°
Mean anomaly
182.9097°
Eccentric anomaly
182.90802°
Mean motion
3.45873 °/min
Orbital period
104.08 mins
BSTAR
0.0012255
Loading maneuver chart data...
Computing Atmospheric mass density...

Documentation

Showing up to 5 results
|